sat.trackr.live / text

‹ back to catalog

ORBCOMM FM110

NORAD 41182 · 2015-081D

PAYLOAD ACTIVE UNKNOWN

§ Identity

Operator
Country
ORB
Launch date
2015-12-22
Launch site
AFETR
Launch vehicle
Mass (kg)
RCS (m²)
0.57

Purposes: comms

External: N2YO · Heavens-Above · Gunter

§ Orbital elements

Epoch: 2026-05-25T03:51:35.210016Z

Period
98.71 min
Inclination
47.0010°
Eccentricity
0.0003761
Mean motion
14.58838006 rev/d
Perigee alt
694.3 km
Apogee alt
699.6 km
Semi-major
7,075.1 km
B*
1.7108e-4
RAAN
110.3134°
Arg perigee
319.8741°
Mean anomaly
40.1867°
Rev number
55,426

§ Raw data

ORBCOMM FM1101 41182U 15081D   26145.16082419  .00000637  00000+0  17108-3 0  99952 41182  47.0010 110.3134 0003761 319.8741  40.1867 14.58838006554264

JSON: /api/v1/satellites/41182 · /tle

For live sub-satellite position, see the globe view (requires WebGL).

§ Visibility from observer

Set your observer location to see the next 7 days of passes ≥ 10°. The values pass through the URL so the page stays shareable.

No JS? Fill the form by hand. The geolocation button needs JavaScript.

§ Radio — SatNOGS DB

ModeDescriptionDownlinkUplink
FM Telemetry 137.288 MHz

1 transmitter · refreshed weekly from db.satnogs.org